Location: Olomouc
(49.5830°N, 17.2500°E)
Time: 02:38:52
(UTC+01:00)

ISS - Pass Details

Date: 03 October 2020
Orbit: 417 x 420 km, 51.6° (Epoch: 25 October)

Event Time Altitude Azimuth Distance (km) Brightness Sun altitude
Rises 19:31:33 0° 289° (WNW) 2,370 1.9 -11.7°
Reaches altitude 10° 19:33:40 10° 285° (WNW) 1,504 0.6 -12.0°
Maximum altitude 19:36:58 55° 207° (SSW) 512 -3.3 -12.5°
Enters shadow 19:39:14 18° 133° (SE) 1,093 -2.1 -12.9°
